Regional Weather Roundup
Issued by NWS Wakefield, VA

Current Version | Previous Version | Text Only | Print | Product List | Glossary On
Versions: 1 2 3 4 5 6 7 8 9 10 11 12 13 14 15 16 17 18 19 20 21 22 23 24 25 26 27
000
ASUS41 KAKQ 231515
RWRAKQ

REGIONAL WEATHER ROUNDUP
NATIONAL WEATHER SERVICE WAKEFIELD VA
1100 AM EDT TUE MAY 23 2017

Note: "fair" indicates few or no clouds below 12,000 feet with no
significant weather and/or obstructions to visibility. * = Denotes
station may not report precipitation (e.g., rain,snow,etc.),
thunder or fog.

VAZ042-051-052>054-056-231600-
NORTHERN VIRGINIA

CITY           SKY/WX    TMP DP  RH WIND       PRES   REMARKS
WASH NATIONAL  CLOUDY    65  58  78 E8        29.96F
DULLES         CLOUDY    62  54  74 E6        29.96F
FORT BELVOIR   CLOUDY    64  56  77 E3        29.95S
QUANTICO       CLOUDY    65  59  81 E12       29.96F
FREDERICKSBRG* CLOUDY    65  58  77 NE6       29.94F
STAFFORD*      CLOUDY    64  58  81 NE12      29.98F
WARRENTON      CLOUDY    64  52  66 N5        29.96R
CULPEPER*      LGT RAIN  63  55  75 NE6       29.97S
MANASSAS*        N/A     64  56  75 VRB3      29.97S
LEESBURG*      CLOUDY    63  55  77 CALM      29.97F
WINCHESTER     CLOUDY    59  48  67 CALM      29.97S
FRONT ROYAL*   PTSUNNY   61  52  72 CALM      29.96S
LURAY*         CLOUDY    61  52  72 N5        29.96S
$$

VAZ048-049-060>072-079>083-231600-
CENTRAL AND SOUTH CENTRAL VIRGINIA

CITY           SKY/WX    TMP DP  RH WIND       PRES   REMARKS
RICHMOND       LGT RAIN  65  63  93 E12       29.91S FOG
CHESTERFIELD*  NOT AVBL
PETERSBURG*    LGT RAIN  64  63  94 E9G16     29.91R
HANOVER        CLOUDY    66  61  84 VRB6      29.93S HAZE
TAPPAHANNOCK*  CLOUDY    67  62  84 NE8       29.94R
QUINTON*       CLOUDY    64  64 100 NE6       29.91S FOG
CHARLOTTSVILLE LGT RAIN  63  56  78 N7        29.95S
GORDONSVILLE*  CLOUDY    62  55  76 NE7       29.94F
ORANGE*        LGT RAIN  61  54  77 NE7       29.95S
LOUISA*        CLOUDY    66  57  72 CALM      29.93S
BUMPASS*       CLOUDY    62  58  86 W5        29.94F
FARMVILLE*     DRIZZLE   61  60  98 N5        29.91S
CREWE*         CLOUDY    60  56  87 N3        29.90S
FORT PICKETT*  CLOUDY   N/A N/A N/A NE7       29.90R
CHASE CITY*    CLOUDY    63  61  94 N3        29.88F
CLARKSVILLE*   CLOUDY    64  64 100 NE5       29.87F
SOUTH HILL*    CLOUDY    65  65 100 E3        29.93S
LAWRENCEVILLE* CLOUDY    65  64  97 NE5       29.88F
EMPORIA*       CLOUDY    64  63  94 NE7       29.90S
$$

VAZ088>098-231600-
SOUTHEAST VIRGINIA

CITY           SKY/WX    TMP DP  RH WIND       PRES   REMARKS
NORFOLK        LGT RAIN  63  62  97 E15       29.90F
VIRGINIA BEACH LGT RAIN  62  60  93 E12       29.90F FOG
NORFOLK NAVAL  LGT RAIN  65  62  90 E14       29.92S FOG
WEST POINT*    CLOUDY    65  64  97 NE5       29.93R
SALUDA*        CLOUDY    64  64  98 E6        29.93R
NEWPORT NEWS   LGT RAIN  65  63  93 E14G22    29.90S
LANGLEY AFB    LGT RAIN  66  63  88 E14       29.90S
FORT EUSTIS    LGT RAIN  66  63  91 E8        29.88S
WILLIAMSBURG*  CLOUDY    66  66 100 CALM      29.91S
HR EXEC AP*    CLOUDY    66  63  88 E9        29.90R
FRANKLIN*      RAIN      65  64  96 E7        29.90S
US460-WAKEFLD  LGT RAIN  64  63  96 E5        29.90S
$$

VAZ020-022-025-037-045-231600-
WEST CENTRAL AND SOUTHWEST VIRGINIA

CITY           SKY/WX    TMP DP  RH WIND       PRES   REMARKS
STAUNTON*      CLOUDY    60  51  74 NE6       29.98S
WAYNESBORO*    CLOUDY    58  54  85 E6        29.96F
HOT SPRINGS VA LGT RAIN  48  48 100 E12G18    29.96F VSB 1/4
LYNCHBURG      CLOUDY    60  52  74 NE12G22   29.93F
DANVILLE       CLOUDY    64  64 100 NE8       29.88S
SOUTH BOSTON*  CLOUDY    62  61  95 NE6       29.88F
MARTINSVILLE   CLOUDY    63  60  91 N3        29.91S
ROANOKE        CLOUDY    61  57  87 CALM      29.93F
BLACKSBURG     RAIN      58  56  91 E14G20    29.94S
DUBLIN*        CLOUDY    60  55  84 E3        29.93S
MARION*        CLOUDY    63  59  88 E6        29.92S
HILLSVILLE*    CLOUDY    61  57  86 CALM      29.90
RICHLANDS*     CLOUDY    62  59  91 SE3       29.87F
WISE*          CLOUDY    63  57  82 S3        29.87F
ABINGDON*      CLOUDY    65  61  89 E6        29.85F
$$

MDZ021>025-VAZ099-100-231600-
SOUTHERN MARYLAND AND THE DELMARVA PENINSULA

CITY           SKY/WX    TMP DP  RH WIND       PRES   REMARKS
PATUXENT RIVER CLOUDY    65  62  90 E10       29.93F
BAY BRIDGE APT CLOUDY    64  59  82 NE3       29.96S
LEONARDTOWN    CLOUDY    63  59  88 E7        29.96S
DOVER          CLOUDY    64  64 100 E6        29.94S
GEORGETOWN     CLOUDY    63  57  81 E9        29.97R
EASTON         PTSUNNY   66  59  77 E7        30.00R
CAMBRIDGE      CLOUDY    64  59  82 E8        29.95R
SALISBURY      CLOUDY    63  59  87 E12       29.94S FOG
OCEAN CITY     CLOUDY    59  58  96 NE10      29.96R FOG
WALLOPS ISLAND LGT RAIN  62  61  96 NE12      29.94S
ACCOMACK*      LGT RAIN  64  46  51 E12       29.92S
$$

NCZ012>017-030>032-231600-
NORTH CENTRAL AND EASTERN NORTH CAROLINA

CITY           SKY/WX    TMP DP  RH WIND       PRES   REMARKS
ROANOKE RAPIDS DRIZZLE   68  68 100 NE5       29.87F
RALEIGH        LGT RAIN  69  67  93 E6        29.85F FOG
ELIZABETH CITY HVY RAIN  66  66 100 E15       29.89F FOG
AHOSKIE*       HVY RAIN  65  65  97 NE5       29.88F VSB 3/4
EDENTON*       RAIN      69  67  92 E9        29.88F
CURRITUCK*     RAIN     N/A N/A N/A E6        29.91F
KILL DEVIL HLS NOT AVBL
MANTEO         RAIN      65  65 100 E6        29.90S
CAPE HATTERAS  NOT AVBL
TARBORO*       NOT AVBL
GOLDSBORO      CLOUDY    68  68 100 N3        29.82F
WASHINGTON     LGT RAIN  67  67  98 E7        29.86F
GREENVILLE     RAIN      68  68 100 E5        29.87F
NEW BERN       CLOUDY    73  72  96 S5        29.86S
WILMINGTON     CLOUDY    74  72  93 S8        29.83F
$$

VAZ048-231600-
ELSEWHERE

CITY           SKY/WX    TMP DP  RH WIND       PRES   REMARKS
HARRISBURG PA  CLOUDY    65  51  60 E3        29.96F
BALTIMORE      CLOUDY    63  56  78 E10       29.95F
ANNAPOLIS      CLOUDY    65  60  84 E6        29.95F
ANDREWS AFB    PTSUNNY   62  58  85 E8        29.94F
PHILADELPHIA   CLOUDY    64  55  72 NE9       29.96S
HENDERSON NC   LGT RAIN  64  62  96 NE6       29.88S
GREENSBORO     CLOUDY    64  64 100 N7        29.84F FOG
ROCKY MOUNT    LGT RAIN  68  68 100 NE3       29.85S
$$

VAZ100-231600-
MARINE

STATION/POSITION TIME  TEMP    WIND        PRES    WAVE   SWELL
                       AIR SEA DIR/SP/G            HT/PER HT/PER
                 (UTC) (F)     (DEG/KT/KT) (MB)    (FT/S) (FT/S)
CAPE MAY NJ      1448   61 60   80/  8/ 12 1013.8R
LEWES DE         1448   60 62  100/  8/ 10 1014.2R
15NM E FENWICK I 1450   57 56   50/  8/ 10 1014.4F   3/ 7   3/ 7
OCEAN-CITY-INLET 1448   59 61   80/  7/ 12 1014.7R
WACHAPREAGUE VA  1448   62 67   50/ 12/ 15 1012.9F
THOMAS POINT MD  1500   62 65   50/  8/  9   N/A
GOOSES REEF MD   1500   64 59   80/ 10/ 12 1014.7    1/ 2
COVE POINT MD    1448   64     100/ 11/ 13 1014.5F
SOLOMONS ISLAND  1448   64 67   70/  9/ 11   N/A
BISHOPS HEAD MD  1448   64 67   70/ 13/ 17 1013.7F
PINEY POINT MD   1448          110/  9/ 11   N/A
POTOMAC MD       1500   65 67   90/ 10/ 12 1012.5    1/ 2
CAMBRIDGE MD     1436   64 69                N/A
LEWISETTA VA     1448   65 69   90/ 11/ 13 1013.2F
RAPPAHANNOCK LGT 1448           70/ 17/ 19 1013.6F
STINGRAY PT      1450   65     110/ 16/ 17 1013.1R
YORK RVR RNG VA  1448   66      90/ 15/ 18 1012.2S
YORKTOWN VA      1448   66 69   90/ 11/ 14 1012.3R
JAMESTOWN VA     1450   65      80/  6/ 10   N/A
DOMINION TERM VA 1448   65      90/ 13/ 18 1012.8R
KIPTOPEKE VA     1448      66   80/  6/ 12   N/A
CHES BAY BRIDGE  1448   62 67   80/ 17/ 19 1012.6F
CAPE HENRY VA    1448   62      70/ 16/ 18   N/A
WILLOUBY STN VA  1448   64      80/ 16/ 17 1012.5R
S CRANEY ISL VA  1448   65      80/ 14/ 19 1012.3
CAPE HENRY BUOY  1442      62                N/A     3/ 7
1ST LANDING BUOY 1500   63 67              1013.0    2/ 3
CAPE CHARLES BUO 1451      62                N/A     3/ 7
64NM E OF VA BCH 1450   65 64   60/ 12/ 14 1013.5R   4/ 4   2/ 7
DUCK PIER NC     1448   64 65   60/ 16/ 18 1011.9F
44100 DUCK FRF   1435      65                N/A     3/ 3
44056 DUCK FRF   1430      65                N/A     3/ 9
OREGON INLET NC  1442   67 67   60/  7/  9 1011.9R
HATTERAS NC      1448   72 75  220/  8/ 11 1011.6F
DIAMOND SHLS NC  1450   74 77  230/ 12/ 14 1011.9F   4/ 5   2/ 8
CAPE LOOKOUT NC  1400   71     200/ 11/ 13 1011.3F
$$




USA.gov is the U.S. government's official web portal to all federal, state and local government web resources and services.